Flag for Germany Weather past 2 weeks in Hannover, Lower Saxony, Germany

Now
66 °F

Scattered showers. Scattered clouds.


Feels Like: 66 °F
Forecast: 56 / 67 °F
Wind: 8 mph from West

Location: Hannover

Current Time: Sep 1, 2014 at 4:37:12 PM

Latest Report: Sep 1, 2014 at 4:20 PM


Visibility: N/A

Pressure: 30.07 "Hg

Humidity: 73%

Dew point: 57 °F

Location of HannoverLocation

Historic Weather in Hannover — Graph

°F

Hannover temperature yesterday

Maximum temperature yesterday: 64 °F (at 3:20 PM)
Minimum temperature yesterday: 54 °F (at 5:20 AM)
Average temperature yesterday: 58 °F

Past Weeks' High & Low Weather Summary

 TemperatureHumidityPressure
High73 °F (Aug 28, 2:50 PM)100% (Aug 25, 12:20 AM)30.09 "Hg (Aug 25, 12:20 AM)
Low43 °F (Aug 25, 5:20 AM)43% (Aug 28, 12:50 PM)29.59 "Hg (Aug 18, 5:20 AM)
Average57 °F79%29.90 "Hg
* Reported Aug 17 3:20 PM — Sep 1 3:20 PM, Hannover, Weather by CustomWeather, © 2014

Note: Actual official high and low records may vary slightly from our data, if they occured in-between our weather recording intervals... More about our weather records

Advertising

Hannover weather history for previous 24 hours

 ConditionsComfort  
Time TempWeatherWind HumidityBarometerVisibility
3:20 PM
Sep 1
66 °FScattered clouds.7 mph68%30.07 "HgN/A
2:50 PM66 °FScattered clouds.3 mph73%30.07 "HgN/A
2:20 PM64 °FScattered clouds.5 mph78%30.07 "HgN/A
1:50 PM63 °FPartly sunny.6 mph83%30.07 "HgN/A
1:20 PM63 °FBroken clouds.7 mph77%30.09 "HgN/A
12:50 PM61 °FBroken clouds.10 mph88%30.09 "HgN/A
12:20 PM61 °FPartly sunny.9 mph88%30.07 "Hg5 mi
11:50 AM61 °FBroken clouds.6 mph88%30.07 "Hg4 mi
11:20 AM57 °FBroken clouds.9 mph100%30.07 "Hg4 mi
10:50 AM57 °FFog.8 mph100%30.07 "Hg3 mi
10:20 AM57 °FFog.8 mph94%30.07 "Hg2 mi
9:50 AM55 °FFog.7 mph100%30.07 "Hg2 mi
9:20 AM55 °FFog.7 mph100%30.07 "Hg2 mi
8:50 AM55 °FFog.6 mph100%30.04 "Hg2 mi
8:20 AM55 °FFog.6 mph94%30.04 "Hg3 mi
7:50 AM54 °FFog.7 mph100%30.04 "Hg3 mi
7:20 AM54 °FFog.6 mph100%30.04 "Hg3 mi
6:50 AM54 °FFog.6 mph94%30.04 "Hg1 mi
6:20 AM52 °FFog.6 mph100%30.04 "Hg1 mi
5:50 AM52 °FFog.6 mph100%30.04 "Hg3 mi
5:20 AM52 °FFog.6 mph100%30.04 "Hg3 mi
4:50 AM52 °FFog.6 mph100%30.04 "Hg3 mi
4:20 AM52 °FFog.6 mph100%30.04 "Hg3 mi
3:50 AM52 °FPassing clouds.6 mph100%30.01 "Hg4 mi
3:20 AM52 °FPassing clouds.6 mph100%30.01 "Hg4 mi
2:50 AM52 °FPassing clouds.6 mph94%30.01 "Hg4 mi
2:20 AM52 °FPassing clouds.6 mph100%30.01 "HgN/A
1:50 AM52 °FFog.6 mph94%30.01 "HgN/A
1:20 AM52 °FFog.7 mph94%30.01 "HgN/A
12:50 AM52 °FFog.6 mph94%30.01 "HgN/A
12:20 AM52 °FFog.5 mph94%29.98 "HgN/A
11:50 PM
Aug 31
54 °FFog.6 mph94%29.98 "HgN/A
11:20 PM54 °FFog.6 mph94%29.98 "HgN/A
10:50 PM54 °FFog.6 mph94%29.98 "HgN/A
10:20 PM54 °FFog.3 mph94%29.98 "HgN/A
9:50 PM54 °FFog.3 mph94%29.95 "HgN/A
9:20 PM54 °FFog.3 mph94%29.95 "HgN/A
8:50 PM55 °FFog.2 mph94%29.95 "HgN/A
8:20 PM55 °FScattered clouds.2 mph94%29.95 "HgN/A
7:20 PM61 °FScattered clouds.6 mph77%29.92 "HgN/A
6:50 PM59 °FScattered clouds.6 mph88%29.92 "HgN/A
6:20 PM57 °FSprinkles. Partly sunny.6 mph88%29.92 "HgN/A
5:50 PM57 °FSprinkles. Partly sunny.12 mph88%29.92 "HgN/A
5:20 PM63 °FScattered showers. Scattered clouds.15 mph73%29.92 "HgN/A
4:50 PM63 °FScattered clouds.7 mph73%29.89 "HgN/A
4:20 PM64 °FScattered clouds.5 mph73%29.89 "HgN/A
Weather by CustomWeather, © 2014

See weather overviewHow to use our weather pages